Location: Berg
(47.2344°N, 9.5296°E)
Time: 19:03:31
(UTC+00:00)

N. Korean satellite - Pass Details

Date: 21 September 2021
Orbit: 450 x 495 km, 97.3° (Epoch: 16 October)

Event Time Altitude Azimuth Distance (km) Brightness Sun altitude
Rises 03:48:50 0° 28° (NNE) 2,510 10.9 -14.0°
Reaches altitude 10° 03:51:22 10° 47° (NE) 1,638 10.3 -13.5°
Maximum altitude 03:53:52 18° 93° (E) 1,220 9.6 -13.1°
Drops below altitude 10° 03:56:23 10° 138° (SE) 1,646 9.6 -12.7°
Sets 03:58:56 0° 158° (SSE) 2,529 10.3 -12.3°
